This is the latest recevied weather packets stored in our database for station/object WZ9ZZZ-1. If no packets are shown the sender has not sent any weather packets the latest 10 day(s).
| Time | Temp. | Humidity | Pressure | Rain* | Wind** | Luminosity | Snow |
|---|---|---|---|---|---|---|---|
| 1777381187 | 25° C | 92% | 1017.5 hPa | 0 mm | - | 74 W/m² | - |
| 1777380884 | 25° C | 92% | 1017.5 hPa | 0 mm | - | 61 W/m² | - |
| 1777380582 | 25° C | 92% | 1017.2 hPa | 0 mm | - | 56 W/m² | - |
| 1777380277 | 25° C | 93% | 1017.1 hPa | 0 mm | - | 50 W/m² | - |
| 1777379974 | 25° C | 93% | 1017.3 hPa | 0 mm | - | 46 W/m² | - |
| 1777379670 | 25° C | 93% | 1017.2 hPa | 0 mm | - | 42 W/m² | - |
| 1777379365 | 24.44° C | 93% | 1016.8 hPa | 0 mm | - | 37 W/m² | - |
| 1777379061 | 24.44° C | 93% | 1016.7 hPa | 0 mm | - | 29 W/m² | - |
| 1777378755 | 24.44° C | 94% | 1017 hPa | 0 mm | - | 25 W/m² | - |
| 1777378453 | 24.44° C | 94% | 1016.7 hPa | 0 mm | - | 19 W/m² | - |
| 1777378148 | 24.44° C | 94% | 1016.7 hPa | 0 mm | - | 15 W/m² | - |
| 1777377841 | 24.44° C | 94% | 1017 hPa | 0 mm | - | 11 W/m² | - |
| 1777377541 | 24.44° C | 94% | 1016.9 hPa | 0 mm | - | 8 W/m² | - |
| 1777377236 | 24.44° C | 94% | 1016.8 hPa | 0 mm | - | 6 W/m² | - |
| 1777376934 | 24.44° C | 94% | 1016.5 hPa | 0 mm | - | 3 W/m² | - |
| 1777376631 | 24.44° C | 94% | 1016.5 hPa | 0 mm | - | 1 W/m² | - |
| 1777376328 | 24.44° C | 94% | 1016.3 hPa | 0 mm | - | 0 W/m² | - |
| 1777376023 | 24.44° C | 94% | 1016.1 hPa | 0 mm | - | 0 W/m² | - |
| 1777375722 | 24.44° C | 93% | 1016 hPa | 0 mm | - | 0 W/m² | - |
| 1777375418 | 25° C | 93% | 1015.7 hPa | 0 mm | - | 0 W/m² | - |
| 1777375115 | 25° C | 93% | 1015.8 hPa | 0 mm | - | 0 W/m² | - |
| 1777374814 | 25° C | 93% | 1016.1 hPa | 0 mm | - | 0 W/m² | - |
| 1777374511 | 25° C | 93% | 1016.2 hPa | 0 mm | - | 0 W/m² | - |
| 1777374208 | 25° C | 93% | 1015.6 hPa | 0 mm | - | 0 W/m² | - |
| 1777373904 | 25° C | 93% | 1015.7 hPa | 0 mm | - | 0 W/m² | - |
* Rain latest hour (hover to see other rain measurements)
** Current wind speed in m/s (hover to see current wind gust speed)